IRIDIUM 52 [P]

Last updated on Oct. 24, 2018, 12:08 a.m. UTC

1 25169U 98010A   18296.47220115  .01404566 -13964-5  10271-2 0  9997
2 25169  86.5688 143.9577 0388639 166.6562 194.5347 15.43755667 82261

Satellite is not in orbit.